SCP
1 0 0 0 0 0 0 0 0 0 0 0 0 0 0 0 0 0 0 0 0 1 2 2 3 2 2 2 2 2 2 2 2 3 3 3 2 2 1 1 1 1 1 1 1 1 1 0 0
1 0 0 0 0 0 0 0 0 0 0 0 0 0 0 0 0 0 0 0 1 1 2 2 3 2 2 2 2 2 2 2 2 3 3 3 2 2 1 1 1 1 1 1 1 1 1 1 1
1 0 0 0 0 0 0 0 0 0 0 0 0 0 0 0 0 0 0 0 1 1 2 2 2 2 2 2 2 2 2 2 2 3 4 3 3 2 2 1 1 1 1 1 1 1 1 1 1
1 1 1 0 0 0 0 0 0 0 0 0 0 0 0 0 0 0 0 0 1 1 2 2 2 2 2 2 2 2 2 2 2 3 4 4 3 2 2 2 2 2 1 1 1 1 1 1 1
1 1 1 0 0 0 0 0 0 0 0 0 0 0 0 0 0 0 0 0 1 1 2 2 3 3 2 2 2 2 2 2 2 2 3 4 3 3 2 2 2 1 1 1 1 0 0 0 0
1 1 0 0 0 0 0 0 0 0 0 0 0 0 0 0 0 0 0 0 1 1 2 3 3 3 3 2 2 2 2 2 2 2 3 4 3 3 2 2 1 1 1 0 0 0 0 0 0
1 1 0 0 0 0 0 0 0 0 0 0 0 0 0 0 0 0 0 1 1 2 3 3 3 3 3 2 2 2 2 2 2 2 3 3 3 3 3 2 1 1 0 0 0 0 0 0 0
0 0 0 0 0 0 0 0 0 0 0 0 0 0 0 0 0 0 0 1 1 1 3 4 3 3 2 2 2 2 2 2 2 2 2 2 3 3 2 1 1 0 0 0 0 0 0 0 0
0 0 0 0 0 0 0 0 0 0 0 0 0 0 0 0 1 1 1 1 1 1 3 4 4 3 3 2 2 2 2 2 2 2 1 1 2 2 1 1 0 0 0 0 0 0 0 0 0
0 0 0 0 0 0 0 0 0 0 0 0 0 0 0 0 1 0 1 1 1 1 2 4 4 3 3 3 2 2 2 2 1 1 1 1 1 1 0 0 0 0 0 0 0 0 0 0 0
0 0 0 0 0 0 0 0 0 0 0 0 0 0 0 0 0 0 0 1 1 2 2 3 4 4 3 3 2 2 2 2 1 1 1 1 0 0 0 0 0 0 0 0 0 0 0 0 0
0 0 0 0 0 0 0 0 0 0 0 0 0 0 0 0 0 0 1 1 1 2 2 2 3 4 3 2 2 2 2 2 1 1 1 1 0 0 0 0 0 0 0 0 0 0 0 0 0
0 0 0 0 0 0 0 0 0 0 0 0 0 0 0 1 0 0 1 1 1 2 2 2 3 4 3 2 2 1 1 2 1 1 1 1 0 0 0 0 0 0 0 0 0 0 0 0 0
0 0 0 0 0 0 0 0 0 0 0 0 0 0 0 1 0 0 1 1 1 2 2 2 2 3 3 3 2 1 1 1 1 1 1 1 0 0 0 0 0 0 0 0 0 0 0 0 0
0 0 0 0 0 0 0 0 0 0 0 0 0 0 0 1 0 0 1 1 1 2 2 2 1 2 3 3 3 2 1 1 1 1 1 1 1 0 0 0 0 0 0 0 0 0 0 0 0
0 0 0 0 0 0 0 0 0 0 0 0 0 0 0 0 0 0 0 1 1 2 2 1 1 2 3 3 3 2 2 1 1 1 1 1 1 1 0 0 0 0 0 0 0 0 0 0 0
0 0 0 0 0 0 0 0 0 0 0 0 0 0 0 0 0 0 0 1 1 1 1 1 1 2 2 3 3 3 2 2 2 2 2 2 1 1 1 0 0 0 0 0 0 0 1 1 1
0 0 0 0 0 0 0 0 0 0 0 0 0 0 0 0 0 0 0 0 1 1 1 1 1 2 2 3 3 3 3 3 2 2 2 2 2 1 1 1 1 1 1 1 1 1 1 1 1
0 0 0 0 0 0 0 0 0 0 0 0 0 0 0 0 0 0 0 0 1 1 1 1 1 2 3 3 3 3 3 3 3 3 2 2 2 2 1 2 2 2 1 1 1 2 2 2 2
0 0 0 0 0 0 0 0 0 0 0 0 0 0 0 0 0 0 0 0 0 1 1 1 1 2 3 3 3 3 3 3 3 3 2 2 2 2 2 2 2 2 2 2 2 2 2 3 2
0 0 0 0 0 0 0 0 0 0 0 0 0 0 0 0 0 0 0 1 1 1 1 1 1 2 3 3 3 3 3 3 3 3 2 2 2 1 2 2 2 2 2 2 2 2 3 3 3
0 0 0 0 0 0 0 0 0 0 0 0 0 0 0 0 0 0 1 1 1 1 1 1 1 3 3 3 3 3 3 3 3 3 2 2 2 1 2 2 2 2 2 2 2 2 3 3 2
0 0 0 0 0 0 0 0 0 0 0 0 0 0 0 0 0 0 1 1 1 1 1 1 1 2 3 3 3 3 2 2 2 2 2 2 1 1 1 2 2 2 2 2 2 2 2 2 2
0 0 0 0 0 0 0 0 0 0 0 0 0 0 0 0 0 0 1 1 1 1 1 1 1 2 3 3 3 3 2 2 2 2 2 2 1 1 1 1 1 1 1 1 2 2 2 2 2
0 0 0 0 0 0 0 0 0 0 0 0 0 0 0 0 0 0 0 0 1 1 1 1 1 2 2 3 3 3 2 2 2 2 2 1 1 1 1 1 1 1 1 1 1 1 1 2 2
0 0 0 0 0 0 0 0 0 0 0 0 0 0 0 0 0 0 0 0 0 0 1 1 1 2 2 3 3 3 3 2 2 2 1 1 1 1 1 1 1 1 1 1 1 1 1 1 1
0 0 0 0 0 0 0 0 0 0 0 0 0 0 0 0 0 0 0 0 0 0 0 0 1 1 2 2 3 3 3 3 2 2 1 1 1 1 1 1 1 1 1 1 1 1 1 1 1
0 0 0 0 0 0 0 0 0 0 0 0 0 0 0 0 0 0 0 0 0 0 0 0 1 1 2 2 2 3 3 3 2 2 1 1 1 1 1 1 1 1 1 1 1 1 1 1 1
0 0 0 0 0 0 0 0 0 0 0 0 0 0 0 0 0 0 0 0 0 0 0 0 0 1 2 2 2 2 2 2 2 2 1 1 1 1 1 1 1 1 1 1 1 1 1 1 1
0 0 0 0 0 0 0 0 0 0 0 0 0 0 0 0 0 0 0 0 0 0 0 0 0 1 2 2 2 2 2 2 2 2 1 1 1 1 1 1 1 1 1 1 1 1 1 1 1
Wind_Speed
7 8 8 3 4 6 11 8 7 4 3 1 2 3 4 4 2 3 5 7 11 13 15 17 18 17 16 15 14 14 13 13 12 12 11 11 11 11 11 10 10 10 10 10 11 11 10 11 11
7 9 6 4 6 9 9 8 8 5 2 2 2 2 4 2 4 8 5 8 12 13 14 14 17 17 16 15 15 14 13 13 12 12 11 11 11 11 11 10 10 10 10 10 10 10 10 10 10
10 10 5 5 8 10 6 4 4 3 1 1 1 2 3 1 3 6 8 10 11 12 13 14 18 17 17 16 15 14 14 13 12 12 11 11 11 11 11 10 10 10 10 11 10 10 10 10 10
6 5 5 8 14 12 10 6 2 4 2 2 3 3 1 1 3 7 10 9 10 11 12 15 18 18 17 16 15 14 14 13 12 12 12 11 11 11 11 10 10 10 10 10 10 10 10 9 9
5 4 8 11 16 12 8 7 6 5 3 4 5 4 1 3 8 9 8 8 9 10 12 15 18 18 17 16 15 14 14 13 13 12 12 11 11 11 11 10 10 10 10 9 9 9 9 8 8
5 5 8 12 14 11 9 6 7 7 6 4 4 5 2 5 8 7 7 7 7 9 12 14 17 17 17 17 15 15 14 14 13 13 12 12 12 11 11 11 11 10 9 9 9 9 8 8 7
6 6 11 13 11 10 8 5 6 6 7 6 4 5 2 5 7 7 6 7 7 9 11 12 12 13 15 15 15 15 14 14 13 13 13 12 12 12 12 11 11 10 10 9 9 8 8 7 6
4 5 11 12 12 10 6 6 6 5 6 4 3 4 2 6 7 6 5 5 6 8 10 12 11 11 10 10 13 13 13 13 13 12 11 11 11 11 11 10 11 11 10 9 9 8 7 7 6
5 8 12 11 9 8 6 6 5 4 6 7 3 2 3 7 7 6 4 4 5 7 9 11 12 11 11 10 12 12 11 11 11 10 11 9 6 6 7 9 11 11 11 10 9 9 8 7 5
7 9 14 10 8 8 9 8 7 5 8 8 4 1 4 4 5 6 7 8 8 8 9 9 11 11 11 10 9 8 8 8 8 7 8 6 6 6 7 10 12 11 10 10 9 9 8 6 3
8 11 11 12 10 9 10 9 8 8 9 9 6 3 4 5 5 7 7 8 8 8 9 9 10 10 10 8 8 6 6 6 8 9 9 7 6 5 5 4 6 6 7 5 6 6 4 4 4
10 12 13 12 9 8 10 10 10 11 11 7 7 4 5 7 8 8 8 8 8 8 10 9 10 10 10 9 8 7 6 6 6 8 10 7 5 5 6 5 5 5 4 5 5 4 6 6 6
13 12 12 12 11 10 10 11 12 14 12 10 7 6 7 8 9 8 8 8 8 9 10 10 10 10 10 9 7 8 7 7 7 7 9 9 6 6 6 5 5 6 5 5 5 5 6 6 5
8 9 12 12 11 10 11 13 12 14 11 10 9 8 9 10 9 8 8 8 9 9 10 10 10 10 9 8 8 7 7 7 7 7 8 10 7 7 6 6 6 6 6 6 6 6 5 5 4
8 10 12 11 10 9 9 13 14 13 11 11 10 10 10 10 10 10 9 8 8 8 9 10 11 10 10 9 9 7 7 7 7 7 8 9 9 8 7 6 6 6 6 6 5 5 4 4 4
8 8 9 7 9 8 7 13 10 8 9 11 10 9 9 9 10 9 9 8 7 7 8 10 9 11 11 9 8 6 6 7 7 7 8 10 10 9 8 6 6 6 6 5 5 4 4 4 3
6 8 10 8 7 7 9 12 10 9 10 11 10 9 8 7 7 7 7 8 7 8 8 8 9 11 11 9 8 7 6 7 7 7 7 9 10 11 8 7 6 7 6 5 6 5 4 4 4
5 8 10 10 6 8 11 14 13 10 11 11 10 9 8 8 7 6 6 7 7 7 7 8 9 9 9 8 7 6 6 6 6 7 8 10 10 11 10 7 8 8 6 6 6 6 5 4 4
9 11 14 13 9 9 12 16 15 12 11 9 9 9 8 8 7 6 5 5 6 6 7 8 9 10 8 7 8 8 8 7 7 7 9 10 11 12 10 8 9 8 8 8 8 6 6 5 4
10 12 14 12 9 10 13 17 16 14 12 10 10 9 8 8 7 6 6 5 6 6 7 8 9 10 10 8 8 7 7 7 7 6 8 10 11 12 11 11 9 9 8 9 9 7 6 5 6
11 10 10 12 13 11 12 13 13 9 8 9 10 9 9 8 7 6 6 5 5 6 7 7 9 9 10 9 6 5 5 4 6 7 8 10 12 13 12 13 10 10 10 9 10 9 9 7 6
10 7 10 11 10 7 5 9 10 9 8 8 8 7 6 7 6 5 5 6 6 6 6 7 8 9 10 10 9 9 9 9 10 9 8 9 12 12 13 13 13 11 10 10 11 11 8 8 7
7 7 9 11 10 11 9 9 9 6 8 6 5 5 4 4 4 4 5 5 6 6 5 5 6 8 9 10 11 11 10 9 7 7 9 10 10 12 13 13 13 12 11 11 11 11 10 9 8
6 7 10 9 5 9 9 8 9 4 5 4 3 2 1 2 2 3 3 3 4 4 5 5 6 7 8 10 11 12 13 11 9 10 10 10 8 9 13 13 13 13 11 12 12 12 12 11 10
3 3 3 2 4 7 4 7 8 4 2 1 1 1 1 2 3 3 4 3 3 2 4 4 6 7 8 9 11 12 13 13 12 12 11 10 9 9 13 13 13 12 12 12 11 12 12 12 11
5 5 4 4 4 5 4 7 5 2 1 1 1 1 2 2 3 4 4 3 2 3 3 4 5 7 8 9 10 11 12 10 9 11 10 11 10 10 11 13 13 13 12 12 12 10 11 10 12
4 5 4 5 7 7 7 6 6 4 2 1 1 1 2 3 4 5 5 4 3 3 3 4 5 6 7 7 8 9 10 10 9 9 10 8 9 8 11 12 13 13 13 13 12 10 12 11 12
6 4 2 3 5 6 7 7 5 3 3 2 2 2 3 4 5 5 5 4 4 3 3 3 4 6 5 6 7 7 9 9 9 8 9 9 9 9 10 12 13 13 13 12 12 9 9 11 11
5 5 5 5 5 5 6 5 2 2 3 2 2 4 4 5 5 5 5 4 4 4 3 3 4 4 5 5 6 6 7 8 8 8 9 9 8 9 10 11 12 13 13 13 12 12 11 12 11
6 6 6 6 7 6 7 8 4 4 5 5 5 6 5 5 5 5 5 4 4 4 4 4 3 3 4 4 4 6 6 6 7 8 8 8 9 9 10 9 10 11 12 12 13 13 12 13 13
Wind_Direction
232 227 222 230 234 233 242 238 249 258 262 341 17 336 318 313 347 102 170 149 125 136 144 158 159 160 159 157 154 150 148 145 141 139 138 135 132 128 124 122 118 115 114 113 111 107 104 102 100
241 229 223 230 235 238 239 228 244 256 264 46 30 301 289 321 76 114 145 127 131 137 145 158 159 161 161 159 157 155 152 149 147 145 142 140 137 134 130 126 122 117 113 111 111 110 107 104 102
247 235 227 228 233 238 246 216 228 235 246 142 234 250 262 329 101 123 134 133 135 138 148 154 159 163 163 162 160 159 157 154 153 151 148 145 143 141 136 131 127 122 117 114 113 113 110 107 105
237 224 236 239 244 243 257 271 271 244 206 188 237 253 182 93 76 105 123 139 142 143 144 150 161 164 164 165 164 163 163 162 161 158 155 152 149 147 143 138 133 129 125 123 120 119 115 111 109
232 231 231 239 246 248 250 267 284 279 236 209 224 244 260 89 98 111 131 146 149 147 142 153 163 166 167 169 169 168 167 167 167 163 160 158 155 151 149 145 140 138 135 132 129 126 122 119 117
227 231 235 239 245 245 244 247 258 269 269 235 229 249 224 136 124 132 144 152 155 146 143 152 165 167 170 171 172 172 172 172 172 170 167 165 161 158 156 152 149 148 146 144 138 134 131 130 129
239 245 248 253 254 250 246 251 250 251 265 252 220 253 215 148 131 138 150 157 156 147 144 150 165 168 172 173 175 175 174 176 176 175 174 170 167 166 163 160 158 157 156 153 149 146 142 140 140
252 261 253 252 256 257 256 257 265 276 279 285 239 248 203 137 130 137 151 160 154 151 151 156 166 170 173 174 176 175 175 177 178 178 176 171 170 170 166 165 166 164 162 162 160 159 156 154 156
247 244 247 249 259 272 285 281 279 293 283 282 273 294 112 126 134 145 157 166 165 165 162 163 169 173 174 175 177 174 174 177 177 176 172 167 166 165 169 171 170 170 170 170 170 170 166 165 174
213 238 245 256 273 284 291 294 291 274 270 268 264 218 123 140 164 176 184 185 184 181 177 172 173 174 174 177 168 172 177 176 180 176 172 175 176 177 175 167 169 174 175 177 179 182 179 178 183
224 237 258 266 275 285 288 287 286 275 263 262 259 220 172 183 203 204 202 198 193 186 184 179 177 176 175 170 167 174 176 176 187 184 180 181 178 168 157 152 159 167 173 176 181 184 194 200 190
241 248 254 265 276 281 282 283 278 267 267 275 277 244 212 208 212 212 211 205 198 191 188 184 179 179 177 172 173 175 176 179 185 185 182 179 173 167 161 163 166 171 177 179 179 188 204 207 193
244 252 258 263 269 269 274 272 275 269 270 274 271 246 226 223 224 222 218 210 201 197 189 186 184 181 179 177 179 179 179 179 182 181 184 178 171 171 167 174 174 179 179 179 185 194 200 202 199
261 269 269 269 265 267 265 267 263 263 262 263 258 240 232 233 231 229 223 213 205 201 193 185 187 184 182 183 184 181 180 177 180 178 184 179 174 174 170 176 178 182 179 179 188 196 196 196 193
273 272 266 252 247 251 267 264 248 250 254 254 253 245 236 231 228 227 224 219 211 203 194 188 189 186 185 188 189 185 182 180 182 180 184 183 177 175 172 176 180 184 180 180 187 198 195 192 191
261 259 256 242 235 236 237 258 256 258 254 258 258 255 245 234 229 225 221 219 213 205 200 193 190 189 189 190 190 187 187 184 185 181 183 187 182 177 175 180 182 183 179 179 184 189 187 193 192
235 251 260 266 231 242 241 264 268 264 259 258 258 260 256 247 241 231 219 215 212 207 202 195 190 191 191 191 188 189 188 190 187 185 185 189 188 182 179 183 183 181 180 182 187 189 182 188 195
263 276 279 275 269 266 266 273 279 269 258 255 256 258 261 252 243 239 227 214 210 208 202 196 192 192 190 188 188 190 194 194 191 192 192 190 191 187 183 183 186 183 181 184 186 188 189 187 188
282 281 282 284 289 280 274 276 276 274 263 256 255 255 253 250 241 235 230 219 210 203 201 198 195 195 190 190 193 194 199 198 197 198 197 197 192 188 186 188 188 187 188 188 186 185 190 197 181
276 277 279 287 294 289 278 275 273 264 255 251 254 255 253 254 245 232 228 223 218 206 204 203 198 195 196 196 198 198 197 199 201 199 202 204 197 192 192 191 192 190 188 190 192 188 187 194 181
264 268 278 291 303 285 281 277 266 266 252 248 246 245 250 249 246 235 227 228 224 217 213 213 204 197 198 195 188 191 189 193 200 204 207 209 203 199 195 195 193 193 191 195 196 194 190 195 195
271 276 287 291 295 289 290 290 273 263 250 243 244 244 242 247 248 242 228 223 220 221 216 215 208 199 196 193 191 194 200 204 206 202 205 208 205 205 200 198 197 197 197 198 199 199 196 188 196
276 292 282 279 277 280 266 268 274 256 247 237 242 242 241 247 244 250 242 232 219 213 217 220 214 206 197 195 198 201 210 213 209 202 205 211 209 208 205 202 201 201 201 202 201 200 200 198 198
284 291 277 259 252 262 244 239 274 254 245 239 242 254 293 319 296 280 264 255 233 211 211 221 220 215 205 199 201 205 210 211 209 208 209 210 210 209 209 206 204 205 205 203 204 204 202 203 204
254 277 286 258 219 241 233 238 253 259 270 268 329 357 355 338 331 324 315 306 298 242 221 225 222 220 212 205 204 208 211 212 213 211 209 207 210 209 209 207 207 208 209 206 203 205 206 204 205
238 233 245 266 259 285 278 247 257 247 317 44 44 4 328 326 325 315 306 303 307 281 236 234 229 227 219 211 210 212 214 215 218 215 212 210 213 211 206 208 211 210 209 209 208 209 209 207 209
249 239 259 279 287 277 252 255 268 277 301 347 332 351 341 336 334 326 326 321 314 301 261 249 243 236 231 222 214 217 217 219 221 219 215 213 213 210 205 208 211 213 211 209 210 215 212 208 210
242 276 278 245 268 268 266 258 261 276 283 327 325 334 336 337 333 329 323 319 309 296 278 261 254 240 239 234 223 222 220 222 223 220 219 218 214 210 205 208 210 211 212 211 211 216 216 212 212
224 235 240 250 245 262 278 267 325 340 347 350 342 346 332 321 318 318 312 314 315 318 305 280 260 251 243 238 233 228 225 225 225 225 224 221 217 211 208 208 211 211 212 212 214 216 214 217 216
238 237 230 242 252 255 272 272 305 333 344 343 330 326 318 312 304 306 308 312 320 318 313 304 287 267 260 251 243 233 229 228 230 230 229 225 220 214 211 209 212 213 212 211 214 216 214 215 218